Station Historical Data
Daily Summary for January 1, 2018 Units:  English    Metric   Both
« Previous Day
Next Day »
Daily Weekly Monthly Yearly Custom
  High: Low: Average:
Temperature: 22.6 °F 3.9 °F 14 °F
Dew Point: 8.6 °F 0.1 °F 4.2 °F
Humidity: 86 % 47 % 66 %
Wind Speed: 15.0 mph 0.0 mph 1.5 mph
Wind Gust: 18.0 mph - -
Wind:- - WSW
Pressure: 30.58 in 30.46 in -
Precipitation: 0.00 in    
Historical Graphs
 
 
Tabular Data for January 1, 2018
Time Temperature Dew Point Pressure Wind Wind Speed Wind Gust Humidity Rainfall Rate (Hourly)
00:04 12.0 °F 4.1 °F 30.47 in Calm   4.0 mph 70 % 0.00 in
00:07 12.0 °F 4.1 °F 30.46 in WSW 2.0 mph 4.0 mph 70 % 0.00 in
00:12 12.1 °F 4.2 °F 30.47 in Calm   4.0 mph 70 % 0.00 in
00:13 12.0 °F 4.1 °F 30.47 in Calm   4.0 mph 70 % 0.00 in
00:17 12.0 °F 4.1 °F 30.47 in Calm   2.0 mph 70 % 0.00 in
00:18 12.0 °F 4.1 °F 30.47 in Calm   2.0 mph 70 % 0.00 in
00:23 12.0 °F 4.1 °F 30.46 in Calm   2.0 mph 70 % 0.00 in
00:25 12.0 °F 4.1 °F 30.46 in Calm   2.0 mph 70 % 0.00 in
00:30 11.9 °F 4.0 °F 30.46 in Calm   6.0 mph 70 % 0.00 in
00:32 11.9 °F 4.0 °F 30.46 in Calm   6.0 mph 70 % 0.00 in
00:36 11.9 °F 4.0 °F 30.46 in Calm   6.0 mph 70 % 0.00 in
00:41 11.8 °F 3.9 °F 30.46 in Calm   6.0 mph 70 % 0.00 in
00:42 11.8 °F 3.9 °F 30.46 in Calm   6.0 mph 70 % 0.00 in
00:46 11.8 °F 4.2 °F 30.46 in Calm   5.0 mph 71 % 0.00 in
00:51 11.9 °F 4.0 °F 30.46 in Calm   5.0 mph 70 % 0.00 in
00:52 11.9 °F 4.0 °F 30.46 in Calm   5.0 mph 70 % 0.00 in
00:55 11.9 °F 4.0 °F 30.46 in Calm   5.0 mph 70 % 0.00 in
00:58 12.0 °F 4.1 °F 30.46 in Calm   5.0 mph 70 % 0.00 in
01:03 12.0 °F 4.1 °F 30.46 in Calm   5.0 mph 70 % 0.00 in
01:08 12.1 °F 4.5 °F 30.46 in Calm   4.0 mph 71 % 0.00 in
01:09 12.2 °F 4.6 °F 30.46 in Calm   4.0 mph 71 % 0.00 in
01:14 12.2 °F 4.3 °F 30.46 in Calm   4.0 mph 70 % 0.00 in
01:15 12.2 °F 4.3 °F 30.46 in Calm   4.0 mph 70 % 0.00 in
01:16 12.2 °F 4.3 °F 30.46 in Calm   4.0 mph 70 % 0.00 in
01:21 12.2 °F 4.3 °F 30.46 in Calm   4.0 mph 70 % 0.00 in
01:22 12.2 °F 4.3 °F 30.46 in Calm   3.0 mph 70 % 0.00 in
01:27 12.1 °F 4.2 °F 30.46 in Calm   3.0 mph 70 % 0.00 in
01:29 12.1 °F 4.2 °F 30.46 in Calm   3.0 mph 70 % 0.00 in
01:31 12.1 °F 4.2 °F 30.46 in Calm   3.0 mph 70 % 0.00 in
01:36 12.0 °F 4.1 °F 30.47 in WNW 1.0 mph 3.0 mph 70 % 0.00 in
01:41 11.9 °F 4.3 °F 30.47 in Calm   3.0 mph 71 % 0.00 in
01:42 11.9 °F 4.3 °F 30.47 in Calm   3.0 mph 71 % 0.00 in
01:43 11.9 °F 4.0 °F 30.47 in Calm   3.0 mph 70 % 0.00 in
01:48 11.8 °F 4.2 °F 30.47 in Calm   4.0 mph 71 % 0.00 in
01:52 11.7 °F 4.2 °F 30.47 in Calm   4.0 mph 71 % 0.00 in
01:55 11.6 °F 4.1 °F 30.47 in WNW 1.0 mph 4.0 mph 71 % 0.00 in
02:00 11.5 °F 4.0 °F 30.47 in WNW 1.0 mph 4.0 mph 71 % 0.00 in
02:01 11.4 °F 3.9 °F 30.47 in Calm   4.0 mph 71 % 0.00 in
02:02 11.4 °F 3.9 °F 30.48 in Calm   4.0 mph 71 % 0.00 in
02:06 11.3 °F 4.1 °F 30.48 in Calm   3.0 mph 72 % 0.00 in
02:08 11.3 °F 4.1 °F 30.48 in Calm   3.0 mph 72 % 0.00 in
02:11 11.2 °F 3.7 °F 30.48 in Calm   2.0 mph 71 % 0.00 in
02:14 11.1 °F 3.6 °F 30.48 in Calm   2.0 mph 71 % 0.00 in
02:16 11.0 °F 3.5 °F 30.48 in Calm   2.0 mph 71 % 0.00 in
02:21 10.7 °F 3.2 °F 30.48 in Calm   2.0 mph 71 % 0.00 in
02:24 10.6 °F 3.4 °F 30.47 in Calm   1.0 mph 72 % 0.00 in
02:27 10.5 °F 3.3 °F 30.47 in Calm   1.0 mph 72 % 0.00 in
02:32 10.2 °F 3.0 °F 30.48 in Calm   1.0 mph 72 % 0.00 in
02:33 10.2 °F 3.0 °F 30.48 in Calm   1.0 mph 72 % 0.00 in
02:38 10.0 °F 3.1 °F 30.48 in Calm   1.0 mph 73 % 0.00 in
02:39 9.9 °F 2.7 °F 30.48 in Calm   1.0 mph 72 % 0.00 in
02:42 9.8 °F 2.9 °F 30.48 in Calm     73 % 0.00 in
02:45 9.7 °F 2.8 °F 30.48 in Calm     73 % 0.00 in
02:50 9.5 °F 2.6 °F 30.48 in Calm     73 % 0.00 in
02:55 9.2 °F 2.6 °F 30.48 in Calm   2.0 mph 74 % 0.00 in
02:56 9.2 °F 2.6 °F 30.48 in Calm   2.0 mph 74 % 0.00 in
02:58 9.2 °F 2.6 °F 30.48 in Calm   2.0 mph 74 % 0.00 in
03:03 9.1 °F 2.8 °F 30.48 in Calm   2.0 mph 75 % 0.00 in
03:06 9.0 °F 2.7 °F 30.48 in Calm   2.0 mph 75 % 0.00 in
03:11 8.9 °F 2.6 °F 30.48 in Calm   2.0 mph 75 % 0.00 in
03:12 8.8 °F 2.5 °F 30.48 in Calm     75 % 0.00 in
03:17 8.7 °F 2.4 °F 30.48 in Calm     75 % 0.00 in
03:19 8.6 °F 2.6 °F 30.48 in Calm     76 % 0.00 in
03:20 8.6 °F 2.3 °F 30.48 in Calm     75 % 0.00 in
03:24 8.4 °F 2.4 °F 30.48 in Calm     76 % 0.00 in
03:26 8.3 °F 2.3 °F 30.48 in Calm     76 % 0.00 in
03:31 8.2 °F 2.2 °F 30.48 in Calm     76 % 0.00 in
03:35 8.0 °F 2.0 °F 30.48 in Calm     76 % 0.00 in
03:40 7.8 °F 1.8 °F 30.48 in Calm     76 % 0.00 in
03:41 7.8 °F 1.8 °F 30.48 in Calm     76 % 0.00 in
03:42 7.7 °F 1.7 °F 30.48 in Calm     76 % 0.00 in
03:46 7.6 °F 1.6 °F 30.48 in Calm     76 % 0.00 in
03:51 7.4 °F 1.7 °F 30.48 in Calm     77 % 0.00 in
03:52 7.4 °F 1.7 °F 30.48 in Calm     77 % 0.00 in
03:57 7.3 °F 1.6 °F 30.48 in Calm     77 % 0.00 in
04:00 7.2 °F 1.5 °F 30.48 in Calm     77 % 0.00 in
04:02 7.2 °F 1.5 °F 30.48 in Calm     77 % 0.00 in
04:05 7.2 °F 1.8 °F 30.48 in Calm     78 % 0.00 in
04:10 7.2 °F 1.8 °F 30.49 in Calm     78 % 0.00 in
04:12 7.2 °F 1.8 °F 30.48 in Calm     78 % 0.00 in
04:17 7.1 °F 1.7 °F 30.48 in Calm     78 % 0.00 in
04:20 7.1 °F 2.0 °F 30.49 in Calm     79 % 0.00 in
04:25 7.0 °F 1.9 °F 30.49 in Calm     79 % 0.00 in
04:27 7.0 °F 1.9 °F 30.49 in Calm     79 % 0.00 in
04:30 7.0 °F 1.9 °F 30.49 in Calm     79 % 0.00 in
04:33 6.9 °F 1.8 °F 30.49 in Calm     79 % 0.00 in
04:38 6.9 °F 1.8 °F 30.49 in Calm     79 % 0.00 in
04:39 6.8 °F 1.7 °F 30.49 in Calm     79 % 0.00 in
04:44 6.8 °F 1.7 °F 30.49 in Calm     79 % 0.00 in
04:45 6.8 °F 1.7 °F 30.49 in Calm     79 % 0.00 in
04:50 6.8 °F 1.9 °F 30.50 in Calm     80 % 0.00 in
04:51 6.8 °F 1.9 °F 30.50 in Calm     80 % 0.00 in
04:56 6.9 °F 2.3 °F 30.50 in Calm     81 % 0.00 in
04:57 7.0 °F 2.4 °F 30.50 in Calm     81 % 0.00 in
04:58 7.0 °F 2.4 °F 30.50 in Calm     81 % 0.00 in
05:03 7.1 °F 2.5 °F 30.50 in Calm     81 % 0.00 in
05:04 7.1 °F 2.5 °F 30.50 in Calm     81 % 0.00 in
05:09 7.1 °F 2.5 °F 30.50 in Calm     81 % 0.00 in
05:14 7.0 °F 2.4 °F 30.50 in Calm     81 % 0.00 in
05:16 7.0 °F 2.4 °F 30.50 in Calm     81 % 0.00 in
05:17 7.0 °F 2.4 °F 30.50 in Calm     81 % 0.00 in
05:22 6.9 °F 2.3 °F 30.50 in Calm     81 % 0.00 in
05:24 7.0 °F 2.4 °F 30.50 in Calm     81 % 0.00 in
05:29 6.9 °F 2.6 °F 30.50 in Calm     82 % 0.00 in
05:32 6.8 °F 2.5 °F 30.50 in Calm     82 % 0.00 in
05:37 6.8 °F 2.2 °F 30.51 in Calm     81 % 0.00 in
05:38 6.8 °F 2.2 °F 30.51 in Calm     81 % 0.00 in
05:43 6.6 °F 2.0 °F 30.51 in Calm     81 % 0.00 in
05:48 6.4 °F 1.8 °F 30.51 in Calm     81 % 0.00 in
05:49 6.4 °F 1.8 °F 30.51 in Calm     81 % 0.00 in
05:54 6.2 °F 1.6 °F 30.51 in Calm     81 % 0.00 in
05:55 6.2 °F 1.6 °F 30.51 in Calm     81 % 0.00 in
06:00 6.0 °F 1.4 °F 30.51 in Calm     81 % 0.00 in
06:02 6.0 °F 1.4 °F 30.51 in Calm     81 % 0.00 in
06:07 5.8 °F 1.5 °F 30.51 in Calm     82 % 0.00 in
06:08 5.8 °F 1.5 °F 30.51 in Calm     82 % 0.00 in
06:13 5.6 °F 1.3 °F 30.51 in Calm     82 % 0.00 in
06:15 5.5 °F 1.2 °F 30.51 in Calm     82 % 0.00 in
06:20 5.4 °F 1.1 °F 30.51 in Calm     82 % 0.00 in
06:21 5.4 °F 1.1 °F 30.51 in Calm     82 % 0.00 in
06:26 5.3 °F 1.0 °F 30.51 in Calm     82 % 0.00 in
06:27 5.3 °F 1.0 °F 30.51 in Calm     82 % 0.00 in
06:30 5.2 °F 0.9 °F 30.51 in Calm     82 % 0.00 in
06:34 5.1 °F 1.0 °F 30.51 in Calm     83 % 0.00 in
06:37 5.1 °F 0.8 °F 30.52 in Calm     82 % 0.00 in
06:40 5.0 °F 0.9 °F 30.52 in Calm     83 % 0.00 in
06:45 4.9 °F 0.9 °F 30.51 in Calm     83 % 0.00 in
06:48 4.8 °F 0.8 °F 30.52 in Calm     83 % 0.00 in
06:51 4.8 °F 0.8 °F 30.52 in Calm     83 % 0.00 in
06:56 4.8 °F 0.8 °F 30.52 in Calm     83 % 0.00 in
06:59 4.7 °F 0.7 °F 30.53 in Calm     83 % 0.00 in
07:04 4.7 °F 0.7 °F 30.53 in Calm     83 % 0.00 in
07:05 4.7 °F 0.7 °F 30.53 in Calm     83 % 0.00 in
07:06 4.7 °F 0.7 °F 30.53 in Calm     83 % 0.00 in
07:11 4.6 °F 0.6 °F 30.53 in Calm     83 % 0.00 in
07:16 4.5 °F 0.5 °F 30.53 in Calm     83 % 0.00 in
07:18 4.5 °F 0.5 °F 30.53 in Calm     83 % 0.00 in
07:23 4.4 °F 0.4 °F 30.53 in Calm     83 % 0.00 in
07:24 4.4 °F 0.4 °F 30.53 in Calm     83 % 0.00 in
07:29 4.3 °F 0.3 °F 30.53 in Calm     83 % 0.00 in
07:30 4.3 °F 0.3 °F 30.53 in Calm     83 % 0.00 in
07:35 4.1 °F 0.1 °F 30.53 in Calm     83 % 0.00 in
07:37 4.1 °F 0.1 °F 30.52 in Calm     83 % 0.00 in
07:42 4.0 °F 0.2 °F 30.52 in Calm     84 % 0.00 in
07:44 4.0 °F 0.2 °F 30.53 in Calm     84 % 0.00 in
07:49 3.9 °F 0.1 °F 30.53 in Calm     84 % 0.00 in
07:54 3.9 °F 0.1 °F 30.53 in Calm     84 % 0.00 in
07:55 4.0 °F 0.2 °F 30.53 in Calm     84 % 0.00 in
08:00 4.1 °F 0.3 °F 30.53 in Calm     84 % 0.00 in
08:05 4.1 °F 0.6 °F 30.54 in Calm     85 % 0.00 in
08:06 4.1 °F 0.3 °F 30.54 in Calm     84 % 0.00 in
08:11 4.2 °F 0.7 °F 30.54 in Calm     85 % 0.00 in
08:12 4.2 °F 0.7 °F 30.54 in Calm     85 % 0.00 in
08:15 4.2 °F 0.7 °F 30.54 in Calm     85 % 0.00 in
08:18 4.4 °F 0.9 °F 30.54 in Calm     85 % 0.00 in
08:23 4.9 °F 1.4 °F 30.54 in Calm     85 % 0.00 in
08:26 5.3 °F 2.0 °F 30.54 in Calm     86 % 0.00 in
08:29 5.6 °F 2.3 °F 30.54 in Calm     86 % 0.00 in
08:31 5.8 °F 2.5 °F 30.54 in Calm     86 % 0.00 in
08:34 6.0 °F 2.7 °F 30.54 in Calm     86 % 0.00 in
08:38 6.2 °F 2.9 °F 30.54 in Calm   1.0 mph 86 % 0.00 in
08:43 6.7 °F 3.4 °F 30.55 in Calm   1.0 mph 86 % 0.00 in
08:48 7.4 °F 4.1 °F 30.55 in Calm   1.0 mph 86 % 0.00 in
08:49 7.5 °F 4.2 °F 30.55 in Calm   1.0 mph 86 % 0.00 in
08:51 8.0 °F 4.6 °F 30.55 in Calm   1.0 mph 86 % 0.00 in
08:56 8.8 °F 5.4 °F 30.55 in Calm   1.0 mph 86 % 0.00 in
08:59 9.2 °F 5.8 °F 30.55 in Calm   2.0 mph 86 % 0.00 in
09:04 9.8 °F 6.2 °F 30.55 in Calm   2.0 mph 85 % 0.00 in
09:05 9.8 °F 6.2 °F 30.55 in Calm   2.0 mph 85 % 0.00 in
09:10 10.7 °F 7.0 °F 30.55 in WNW 1.0 mph 5.0 mph 85 % 0.00 in
09:15 11.4 °F 7.5 °F 30.56 in Calm   5.0 mph 84 % 0.00 in
09:18 11.8 °F 7.6 °F 30.55 in Calm   5.0 mph 83 % 0.00 in
09:23 12.4 °F 8.0 °F 30.55 in WNW 2.0 mph 5.0 mph 82 % 0.00 in
09:27 13.0 °F 8.0 °F 30.56 in WNW 1.0 mph 5.0 mph 80 % 0.00 in
09:28 13.1 °F 8.1 °F 30.56 in Calm   4.0 mph 80 % 0.00 in
09:33 13.5 °F 8.2 °F 30.56 in Calm   4.0 mph 79 % 0.00 in
09:34 13.6 °F 8.3 °F 30.56 in Calm   4.0 mph 79 % 0.00 in
09:39 13.8 °F 8.2 °F 30.56 in WNW 4.0 mph 4.0 mph 78 % 0.00 in
09:40 13.9 °F 8.3 °F 30.56 in WNW 1.0 mph 4.0 mph 78 % 0.00 in
09:42 14.1 °F 8.2 °F 30.56 in Calm   4.0 mph 77 % 0.00 in
09:46 14.4 °F 8.5 °F 30.56 in Calm   6.0 mph 77 % 0.00 in
09:47 14.5 °F 8.6 °F 30.56 in WSW 5.0 mph 6.0 mph 77 % 0.00 in
09:51 15.0 °F 8.5 °F 30.56 in WSW 1.0 mph 6.0 mph 75 % 0.00 in
09:52 15.0 °F 8.5 °F 30.56 in WSW 1.0 mph 6.0 mph 75 % 0.00 in
09:55 15.4 °F 8.3 °F 30.56 in WSW 5.0 mph 7.0 mph 73 % 0.00 in
09:58 15.7 °F 8.3 °F 30.56 in Calm   7.0 mph 72 % 0.00 in
10:00 15.9 °F 8.5 °F 30.56 in WNW 4.0 mph 7.0 mph 72 % 0.00 in
10:03 16.0 °F 8.6 °F 30.56 in West 2.0 mph 7.0 mph 72 % 0.00 in
10:05 16.1 °F 8.4 °F 30.56 in SW 3.0 mph 7.0 mph 71 % 0.00 in
10:10 16.3 °F 8.3 °F 30.56 in WSW 1.0 mph 7.0 mph 70 % 0.00 in
10:12 16.4 °F 8.1 °F 30.56 in Calm   7.0 mph 69 % 0.00 in
10:18 16.6 °F 7.9 °F 30.56 in Calm   8.0 mph 68 % 0.00 in
10:23 16.9 °F 8.2 °F 30.56 in NNE 1.0 mph 8.0 mph 68 % 0.00 in
10:27 17.0 °F 8.0 °F 30.55 in North 1.0 mph 8.0 mph 67 % 0.00 in
10:30 17.2 °F 8.2 °F 30.56 in WSW 1.0 mph 8.0 mph 67 % 0.00 in
10:33 17.4 °F 8.4 °F 30.55 in West 2.0 mph 8.0 mph 67 % 0.00 in
10:36 17.6 °F 7.9 °F 30.55 in WNW 3.0 mph 10.0 mph 65 % 0.00 in
10:41 17.9 °F 7.5 °F 30.55 in Calm   10.0 mph 63 % 0.00 in
10:42 18.0 °F 7.6 °F 30.55 in WNW 2.0 mph 10.0 mph 63 % 0.00 in
10:47 18.2 °F 7.8 °F 30.55 in WSW 2.0 mph 10.0 mph 63 % 0.00 in
10:48 18.2 °F 7.8 °F 30.55 in WSW 3.0 mph 10.0 mph 63 % 0.00 in
10:52 18.4 °F 7.6 °F 30.55 in WSW 3.0 mph 10.0 mph 62 % 0.00 in
10:57 18.5 °F 7.3 °F 30.55 in Calm   10.0 mph 61 % 0.00 in
11:00 18.6 °F 7.4 °F 30.55 in NW 3.0 mph 9.0 mph 61 % 0.00 in
11:04 18.9 °F 7.3 °F 30.55 in WNW 4.0 mph 8.0 mph 60 % 0.00 in
11:05 19.0 °F 7.4 °F 30.54 in WNW 6.0 mph 9.0 mph 60 % 0.00 in
11:10 19.2 °F 7.2 °F 30.55 in Calm   9.0 mph 59 % 0.00 in
11:11 19.3 °F 7.7 °F 30.54 in WSW 15.0 mph 15.0 mph 60 % 0.00 in
11:16 19.4 °F 7.4 °F 30.54 in Calm   15.0 mph 59 % 0.00 in
11:18 19.4 °F 7.4 °F 30.54 in WNW 6.0 mph 15.0 mph 59 % 0.00 in
11:22 19.6 °F 7.6 °F 30.54 in North 3.0 mph 15.0 mph 59 % 0.00 in
11:23 19.6 °F 7.6 °F 30.54 in North 1.0 mph 15.0 mph 59 % 0.00 in
11:28 19.7 °F 7.7 °F 30.54 in Calm   15.0 mph 59 % 0.00 in
11:33 19.8 °F 7.4 °F 30.53 in West 4.0 mph 8.0 mph 58 % 0.00 in
11:34 19.9 °F 7.5 °F 30.53 in WSW 5.0 mph 11.0 mph 58 % 0.00 in
11:39 19.9 °F 7.1 °F 30.53 in Calm   11.0 mph 57 % 0.00 in
11:42 20.0 °F 7.2 °F 30.53 in North 2.0 mph 11.0 mph 57 % 0.00 in
11:44 20.0 °F 7.6 °F 30.53 in North 3.0 mph 11.0 mph 58 % 0.00 in
11:47 20.3 °F 7.9 °F 30.52 in NW 3.0 mph 11.0 mph 58 % 0.00 in
11:51 20.4 °F 7.6 °F 30.52 in Calm   11.0 mph 57 % 0.00 in
11:56 20.8 °F 8.0 °F 30.52 in North 4.0 mph 8.0 mph 57 % 0.00 in
11:59 20.9 °F 7.7 °F 30.52 in WNW 1.0 mph 8.0 mph 56 % 0.00 in
12:04 21.2 °F 7.5 °F 30.52 in West 3.0 mph 8.0 mph 55 % 0.00 in
12:09 21.2 °F 7.5 °F 30.51 in West 1.0 mph 9.0 mph 55 % 0.00 in
12:10 21.2 °F 7.1 °F 30.51 in North 5.0 mph 9.0 mph 54 % 0.00 in
12:13 21.1 °F 7.0 °F 30.51 in NE 6.0 mph 10.0 mph 54 % 0.00 in
12:15 21.0 °F 6.9 °F 30.51 in Calm   10.0 mph 54 % 0.00 in
12:20 21.0 °F 7.3 °F 30.51 in Calm   10.0 mph 55 % 0.00 in
12:25 21.0 °F 7.3 °F 30.51 in WSW 1.0 mph 10.0 mph 55 % 0.00 in
12:26 21.0 °F 7.3 °F 30.51 in North 3.0 mph 10.0 mph 55 % 0.00 in
12:31 20.9 °F 6.8 °F 30.51 in North 4.0 mph 11.0 mph 54 % 0.00 in
12:32 20.9 °F 6.8 °F 30.51 in NNE 2.0 mph 11.0 mph 54 % 0.00 in
12:37 20.8 °F 6.7 °F 30.51 in West 1.0 mph 13.0 mph 54 % 0.00 in
12:38 20.7 °F 6.6 °F 30.51 in WSW 4.0 mph 13.0 mph 54 % 0.00 in
12:43 20.7 °F 7.1 °F 30.50 in Calm   13.0 mph 55 % 0.00 in
12:44 20.8 °F 7.2 °F 30.50 in Calm   13.0 mph 55 % 0.00 in
12:49 21.0 °F 7.3 °F 30.50 in Calm   13.0 mph 55 % 0.00 in
12:54 21.1 °F 7.4 °F 30.50 in West 7.0 mph 10.0 mph 55 % 0.00 in
12:55 21.1 °F 7.4 °F 30.50 in WSW 4.0 mph 10.0 mph 55 % 0.00 in
13:00 21.0 °F 6.9 °F 30.50 in WSW 4.0 mph 10.0 mph 54 % 0.00 in
13:03 20.9 °F 6.8 °F 30.50 in WSW 3.0 mph 10.0 mph 54 % 0.00 in
13:06 20.8 °F 7.2 °F 30.50 in Calm   10.0 mph 55 % 0.00 in
13:11 21.0 °F 7.3 °F 30.49 in WSW 6.0 mph 10.0 mph 55 % 0.00 in
13:14 20.9 °F 6.4 °F 30.49 in WSW 6.0 mph 10.0 mph 53 % 0.00 in
13:19 20.9 °F 6.8 °F 30.49 in Calm   10.0 mph 54 % 0.00 in
13:24 21.0 °F 7.3 °F 30.49 in West 2.0 mph 13.0 mph 55 % 0.00 in
13:26 21.2 °F 7.5 °F 30.49 in NNE 3.0 mph 13.0 mph 55 % 0.00 in
13:31 21.7 °F 7.6 °F 30.49 in NW 8.0 mph 13.0 mph 54 % 0.00 in
13:32 21.8 °F 7.3 °F 30.49 in West 9.0 mph 13.0 mph 53 % 0.00 in
13:37 21.6 °F 6.2 °F 30.49 in SW 2.0 mph 14.0 mph 51 % 0.00 in
13:40 21.5 °F 6.1 °F 30.49 in WSW 3.0 mph 14.0 mph 51 % 0.00 in
13:45 21.4 °F 6.4 °F 30.49 in Calm   14.0 mph 52 % 0.00 in
13:50 21.4 °F 6.4 °F 30.49 in North 4.0 mph 14.0 mph 52 % 0.00 in
13:53 21.3 °F 5.9 °F 30.49 in West 1.0 mph 12.0 mph 51 % 0.00 in
13:57 21.2 °F 6.3 °F 30.49 in NNE 4.0 mph 12.0 mph 52 % 0.00 in
14:00 21.2 °F 6.7 °F 30.49 in Calm   12.0 mph 53 % 0.00 in
14:04 21.2 °F 6.3 °F 30.48 in Calm   12.0 mph 52 % 0.00 in
14:09 21.3 °F 5.9 °F 30.48 in WSW 5.0 mph 12.0 mph 51 % 0.00 in
14:14 21.3 °F 6.4 °F 30.48 in WNW 1.0 mph 12.0 mph 52 % 0.00 in
14:15 21.4 °F 6.4 °F 30.48 in West 3.0 mph 12.0 mph 52 % 0.00 in
14:20 21.6 °F 6.6 °F 30.48 in NW 1.0 mph 12.0 mph 52 % 0.00 in
14:23 21.7 °F 6.3 °F 30.48 in WSW 1.0 mph 12.0 mph 51 % 0.00 in
14:26 21.8 °F 6.4 °F 30.48 in NW 3.0 mph 9.0 mph 51 % 0.00 in
14:31 22.2 °F 7.2 °F 30.48 in SW 4.0 mph 9.0 mph 52 % 0.00 in
14:35 22.5 °F 7.0 °F 30.48 in SW 5.0 mph 9.0 mph 51 % 0.00 in
14:37 22.5 °F 7.0 °F 30.48 in WSW 9.0 mph 10.0 mph 51 % 0.00 in
14:42 22.6 °F 6.7 °F 30.48 in WNW 1.0 mph 10.0 mph 50 % 0.00 in
14:43 22.6 °F 6.7 °F 30.48 in WSW 7.0 mph 10.0 mph 50 % 0.00 in
14:47 22.6 °F 6.2 °F 30.48 in WSW 10.0 mph 11.0 mph 49 % 0.00 in
14:48 22.6 °F 5.8 °F 30.48 in WSW 5.0 mph 11.0 mph 48 % 0.00 in
14:53 22.5 °F 5.2 °F 30.48 in SW 10.0 mph 16.0 mph 47 % 0.00 in
14:55 22.3 °F 5.0 °F 30.48 in WSW 7.0 mph 16.0 mph 47 % 0.00 in
14:56 22.3 °F 5.5 °F 30.48 in WSW 9.0 mph 17.0 mph 48 % 0.00 in
15:01 22.0 °F 4.7 °F 30.48 in WSW 5.0 mph 17.0 mph 47 % 0.00 in
15:06 21.8 °F 4.5 °F 30.48 in Calm   17.0 mph 47 % 0.00 in
15:07 21.8 °F 4.5 °F 30.48 in WSW 3.0 mph 17.0 mph 47 % 0.00 in
15:12 21.7 °F 4.9 °F 30.48 in WSW 9.0 mph 17.0 mph 48 % 0.00 in
15:14 21.6 °F 4.4 °F 30.48 in SW 4.0 mph 17.0 mph 47 % 0.00 in
15:19 21.6 °F 4.8 °F 30.48 in NW 3.0 mph 16.0 mph 48 % 0.00 in
15:25 21.6 °F 5.3 °F 30.48 in West 10.0 mph 16.0 mph 49 % 0.00 in
15:26 21.6 °F 5.3 °F 30.48 in SW 8.0 mph 16.0 mph 49 % 0.00 in
15:28 21.5 °F 5.2 °F 30.48 in West 3.0 mph 16.0 mph 49 % 0.00 in
15:33 21.3 °F 5.5 °F 30.48 in WSW 1.0 mph 16.0 mph 50 % 0.00 in
15:34 21.2 °F 5.4 °F 30.48 in WSW 4.0 mph 16.0 mph 50 % 0.00 in
15:36 21.0 °F 5.2 °F 30.48 in WSW 7.0 mph 15.0 mph 50 % 0.00 in
15:40 20.9 °F 5.1 °F 30.48 in SW 4.0 mph 15.0 mph 50 % 0.00 in
15:45 20.6 °F 4.8 °F 30.48 in WSW 4.0 mph 15.0 mph 50 % 0.00 in
15:48 20.5 °F 5.2 °F 30.48 in West 2.0 mph 15.0 mph 51 % 0.00 in
15:53 20.4 °F 5.1 °F 30.48 in WSW 4.0 mph 11.0 mph 51 % 0.00 in
15:55 20.4 °F 5.1 °F 30.48 in WSW 3.0 mph 11.0 mph 51 % 0.00 in
16:00 20.4 °F 5.1 °F 30.48 in WSW 4.0 mph 11.0 mph 51 % 0.00 in
16:03 20.4 °F 5.5 °F 30.48 in West 2.0 mph 9.0 mph 52 % 0.00 in
16:08 20.4 °F 5.5 °F 30.48 in WSW 2.0 mph 9.0 mph 52 % 0.00 in
16:09 20.5 °F 5.6 °F 30.48 in WSW 4.0 mph 9.0 mph 52 % 0.00 in
16:12 20.5 °F 6.0 °F 30.48 in WSW 4.0 mph 9.0 mph 53 % 0.00 in
16:16 20.6 °F 5.7 °F 30.48 in Calm   9.0 mph 52 % 0.00 in
16:19 20.6 °F 6.1 °F 30.48 in WSW 1.0 mph 6.0 mph 53 % 0.00 in
16:21 20.6 °F 6.1 °F 30.48 in WSW 4.0 mph 6.0 mph 53 % 0.00 in
16:26 20.6 °F 6.1 °F 30.48 in North 1.0 mph 7.0 mph 53 % 0.00 in
16:27 20.6 °F 6.1 °F 30.48 in Calm   7.0 mph 53 % 0.00 in
16:28 20.6 °F 6.1 °F 30.48 in West 2.0 mph 7.0 mph 53 % 0.00 in
16:33 20.6 °F 6.6 °F 30.48 in WNW 2.0 mph 7.0 mph 54 % 0.00 in
16:38 20.5 °F 6.5 °F 30.48 in Calm   7.0 mph 54 % 0.00 in
16:43 20.4 °F 6.4 °F 30.48 in WSW 4.0 mph 7.0 mph 54 % 0.00 in
16:44 20.4 °F 6.4 °F 30.48 in Calm   6.0 mph 54 % 0.00 in
16:45 20.4 °F 5.9 °F 30.48 in WSW 1.0 mph 6.0 mph 53 % 0.00 in
16:50 20.3 °F 5.9 °F 30.48 in Calm   9.0 mph 53 % 0.00 in
16:54 20.2 °F 5.8 °F 30.48 in SW 2.0 mph 9.0 mph 53 % 0.00 in
16:55 20.2 °F 5.8 °F 30.48 in SW 5.0 mph 9.0 mph 53 % 0.00 in
17:00 20.0 °F 5.1 °F 30.49 in Calm   9.0 mph 52 % 0.00 in
17:06 19.9 °F 5.1 °F 30.48 in Calm   9.0 mph 52 % 0.00 in
17:10 19.8 °F 5.4 °F 30.49 in WSW 1.0 mph 9.0 mph 53 % 0.00 in
17:11 19.8 °F 5.4 °F 30.49 in Calm   9.0 mph 53 % 0.00 in
17:16 19.6 °F 5.2 °F 30.48 in WSW 2.0 mph 9.0 mph 53 % 0.00 in
17:21 19.4 °F 5.0 °F 30.49 in Calm   8.0 mph 53 % 0.00 in
17:26 19.1 °F 4.7 °F 30.49 in Calm   6.0 mph 53 % 0.00 in
17:27 19.1 °F 4.7 °F 30.49 in Calm   4.0 mph 53 % 0.00 in
17:32 18.9 °F 5.0 °F 30.49 in Calm   4.0 mph 54 % 0.00 in
17:33 18.9 °F 5.0 °F 30.49 in WSW 1.0 mph 4.0 mph 54 % 0.00 in
17:38 18.6 °F 4.7 °F 30.49 in Calm   3.0 mph 54 % 0.00 in
17:40 18.5 °F 5.0 °F 30.49 in Calm   4.0 mph 55 % 0.00 in
17:45 18.2 °F 4.7 °F 30.49 in Calm   4.0 mph 55 % 0.00 in
17:46 18.2 °F 4.7 °F 30.49 in Calm   4.0 mph 55 % 0.00 in
17:51 17.9 °F 4.8 °F 30.49 in Calm   4.0 mph 56 % 0.00 in
17:53 17.9 °F 4.8 °F 30.49 in Calm   4.0 mph 56 % 0.00 in
17:58 17.5 °F 4.5 °F 30.49 in Calm   4.0 mph 56 % 0.00 in
17:59 17.4 °F 4.7 °F 30.49 in Calm   1.0 mph 57 % 0.00 in
18:03 17.2 °F 4.6 °F 30.49 in Calm   1.0 mph 57 % 0.00 in
18:08 16.9 °F 4.7 °F 30.49 in Calm   1.0 mph 58 % 0.00 in
18:09 16.9 °F 4.7 °F 30.49 in Calm   1.0 mph 58 % 0.00 in
18:14 16.5 °F 4.7 °F 30.49 in Calm   1.0 mph 59 % 0.00 in
18:19 16.2 °F 4.4 °F 30.49 in Calm     59 % 0.00 in
18:20 16.1 °F 4.3 °F 30.49 in Calm     59 % 0.00 in
18:25 15.8 °F 4.4 °F 30.49 in Calm     60 % 0.00 in
18:30 15.6 °F 4.5 °F 30.49 in Calm   1.0 mph 61 % 0.00 in
18:31 15.6 °F 4.5 °F 30.49 in Calm   1.0 mph 61 % 0.00 in
18:32 15.6 °F 4.5 °F 30.50 in Calm   1.0 mph 61 % 0.00 in
18:37 15.4 °F 4.3 °F 30.49 in Calm   1.0 mph 61 % 0.00 in
18:39 15.4 °F 4.3 °F 30.49 in WSW 1.0 mph 1.0 mph 61 % 0.00 in
18:41 15.3 °F 4.6 °F 30.50 in Calm   1.0 mph 62 % 0.00 in
18:46 15.2 °F 4.5 °F 30.50 in Calm   1.0 mph 62 % 0.00 in
18:47 15.2 °F 4.5 °F 30.50 in Calm   1.0 mph 62 % 0.00 in
18:48 15.2 °F 4.5 °F 30.50 in Calm   1.0 mph 62 % 0.00 in
18:52 15.0 °F 4.3 °F 30.50 in Calm   1.0 mph 62 % 0.00 in
18:53 15.0 °F 4.3 °F 30.50 in Calm   1.0 mph 62 % 0.00 in
18:58 14.9 °F 4.2 °F 30.50 in Calm   1.0 mph 62 % 0.00 in
18:59 14.9 °F 4.2 °F 30.50 in Calm   1.0 mph 62 % 0.00 in
19:04 14.7 °F 4.0 °F 30.50 in Calm     62 % 0.00 in
19:09 14.5 °F 4.2 °F 30.51 in Calm     63 % 0.00 in
19:10 14.5 °F 4.2 °F 30.50 in Calm     63 % 0.00 in
19:11 14.5 °F 4.2 °F 30.50 in Calm     63 % 0.00 in
19:16 14.4 °F 4.1 °F 30.50 in Calm   2.0 mph 63 % 0.00 in
19:21 14.4 °F 4.4 °F 30.51 in WSW 1.0 mph 3.0 mph 64 % 0.00 in
19:24 14.4 °F 4.4 °F 30.51 in WSW 5.0 mph 5.0 mph 64 % 0.00 in
19:28 14.8 °F 4.8 °F 30.51 in SW 6.0 mph 9.0 mph 64 % 0.00 in
19:31 15.2 °F 4.9 °F 30.51 in WSW 2.0 mph 9.0 mph 63 % 0.00 in
19:33 15.4 °F 5.0 °F 30.51 in WSW 4.0 mph 9.0 mph 63 % 0.00 in
19:38 15.8 °F 5.1 °F 30.51 in SW 7.0 mph 9.0 mph 62 % 0.00 in
19:39 15.9 °F 5.2 °F 30.51 in WSW 4.0 mph 9.0 mph 62 % 0.00 in
19:44 16.6 °F 5.1 °F 30.51 in WSW 9.0 mph 12.0 mph 60 % 0.00 in
19:49 17.0 °F 4.7 °F 30.51 in SW 5.0 mph 12.0 mph 58 % 0.00 in
19:51 17.1 °F 4.9 °F 30.52 in NW 6.0 mph 13.0 mph 58 % 0.00 in
19:54 17.5 °F 4.5 °F 30.52 in WSW 2.0 mph 15.0 mph 56 % 0.00 in
19:55 17.6 °F 4.2 °F 30.52 in West 2.0 mph 15.0 mph 55 % 0.00 in
20:00 17.9 °F 4.0 °F 30.52 in West 12.0 mph 16.0 mph 54 % 0.00 in
20:02 17.9 °F 3.6 °F 30.52 in WSW 2.0 mph 16.0 mph 53 % 0.00 in
20:03 17.9 °F 3.6 °F 30.53 in West 1.0 mph 16.0 mph 53 % 0.00 in
20:08 17.9 °F 3.6 °F 30.53 in West 1.0 mph 16.0 mph 53 % 0.00 in
20:12 17.9 °F 3.6 °F 30.53 in West 9.0 mph 16.0 mph 53 % 0.00 in
20:14 17.9 °F 3.6 °F 30.53 in WNW 2.0 mph 16.0 mph 53 % 0.00 in
20:18 17.8 °F 3.5 °F 30.53 in West 5.0 mph 16.0 mph 53 % 0.00 in
20:20 17.8 °F 3.5 °F 30.53 in South 7.0 mph 18.0 mph 53 % 0.00 in
20:25 17.7 °F 3.4 °F 30.53 in WNW 3.0 mph 18.0 mph 53 % 0.00 in
20:30 17.6 °F 3.7 °F 30.53 in NW 6.0 mph 18.0 mph 54 % 0.00 in
20:36 17.5 °F 3.2 °F 30.53 in SW 9.0 mph 18.0 mph 53 % 0.00 in
20:40 17.4 °F 3.6 °F 30.53 in West 3.0 mph 15.0 mph 54 % 0.00 in
20:41 17.4 °F 3.6 °F 30.53 in West 3.0 mph 15.0 mph 54 % 0.00 in
20:46 17.3 °F 3.5 °F 30.53 in WSW 1.0 mph 15.0 mph 54 % 0.00 in
20:51 17.2 °F 3.4 °F 30.53 in WSW 6.0 mph 14.0 mph 54 % 0.00 in
20:52 17.2 °F 3.4 °F 30.53 in WSW 4.0 mph 14.0 mph 54 % 0.00 in
20:57 17.2 °F 3.0 °F 30.54 in WSW 4.0 mph 14.0 mph 53 % 0.00 in
21:02 17.1 °F 2.9 °F 30.54 in WSW 3.0 mph 14.0 mph 53 % 0.00 in
21:03 17.0 °F 2.8 °F 30.54 in WNW 1.0 mph 14.0 mph 53 % 0.00 in
21:08 16.8 °F 3.0 °F 30.54 in SW 8.0 mph 14.0 mph 54 % 0.00 in
21:11 16.8 °F 3.0 °F 30.55 in WSW 1.0 mph 12.0 mph 54 % 0.00 in
21:16 16.6 °F 2.8 °F 30.55 in Calm   11.0 mph 54 % 0.00 in
21:22 16.4 °F 3.0 °F 30.55 in West 5.0 mph 11.0 mph 55 % 0.00 in
21:28 16.2 °F 2.8 °F 30.55 in Calm   11.0 mph 55 % 0.00 in
21:33 16.0 °F 2.3 °F 30.55 in SW 3.0 mph 11.0 mph 54 % 0.00 in
21:38 15.8 °F 2.5 °F 30.56 in WSW 1.0 mph 11.0 mph 55 % 0.00 in
21:43 15.7 °F 2.4 °F 30.56 in WNW 2.0 mph 11.0 mph 55 % 0.00 in
21:47 15.5 °F 2.2 °F 30.56 in SW 3.0 mph 11.0 mph 55 % 0.00 in
21:50 15.5 °F 2.2 °F 30.56 in WSW 3.0 mph 11.0 mph 55 % 0.00 in
21:54 15.4 °F 2.1 °F 30.56 in SW 9.0 mph 11.0 mph 55 % 0.00 in
21:58 15.3 °F 2.0 °F 30.56 in WSW 1.0 mph 11.0 mph 55 % 0.00 in
22:02 15.3 °F 2.0 °F 30.56 in WNW 5.0 mph 14.0 mph 55 % 0.00 in
22:09 15.2 °F 2.3 °F 30.56 in WSW 2.0 mph 14.0 mph 56 % 0.00 in
22:19 14.9 °F 2.0 °F 30.57 in WSW 6.0 mph 14.0 mph 56 % 0.00 in
22:23 14.9 °F 2.0 °F 30.57 in WNW 1.0 mph 13.0 mph 56 % 0.00 in
22:28 14.9 °F 2.0 °F 30.57 in WSW 1.0 mph 13.0 mph 56 % 0.00 in
22:29 14.8 °F 1.9 °F 30.57 in North 3.0 mph 13.0 mph 56 % 0.00 in
22:34 14.7 °F 1.8 °F 30.57 in WSW 4.0 mph 13.0 mph 56 % 0.00 in
22:39 14.6 °F 1.7 °F 30.57 in SW 7.0 mph 13.0 mph 56 % 0.00 in
22:41 14.5 °F 1.6 °F 30.57 in SW 5.0 mph 13.0 mph 56 % 0.00 in
22:46 14.5 °F 1.6 °F 30.57 in WSW 1.0 mph 13.0 mph 56 % 0.00 in
22:50 14.4 °F 1.5 °F 30.57 in West 2.0 mph 12.0 mph 56 % 0.00 in
22:58 14.4 °F 1.5 °F 30.57 in WSW 1.0 mph 12.0 mph 56 % 0.00 in
23:02 14.3 °F 1.4 °F 30.58 in WNW 2.0 mph 12.0 mph 56 % 0.00 in
23:06 14.3 °F 1.4 °F 30.58 in Calm   12.0 mph 56 % 0.00 in
23:10 14.2 °F 1.4 °F 30.58 in WSW 1.0 mph 9.0 mph 56 % 0.00 in
23:11 14.1 °F 1.3 °F 30.58 in WSW 4.0 mph 9.0 mph 56 % 0.00 in
23:21 13.9 °F 1.1 °F 30.58 in South 6.0 mph 9.0 mph 56 % 0.00 in
23:22 14.0 °F 1.2 °F 30.58 in SW 3.0 mph 9.0 mph 56 % 0.00 in
23:27 13.9 °F 1.1 °F 30.58 in Calm   9.0 mph 56 % 0.00 in
23:28 13.9 °F 1.1 °F 30.58 in Calm   9.0 mph 56 % 0.00 in
23:33 13.9 °F 1.1 °F 30.58 in SW 4.0 mph 9.0 mph 56 % 0.00 in
23:38 13.7 °F 0.9 °F 30.58 in WSW 3.0 mph 9.0 mph 56 % 0.00 in
23:39 13.7 °F 0.9 °F 30.58 in SW 7.0 mph 9.0 mph 56 % 0.00 in
23:43 13.7 °F 0.9 °F 30.58 in WSW 4.0 mph 11.0 mph 56 % 0.00 in
23:48 13.6 °F 1.2 °F 30.58 in Calm   11.0 mph 57 % 0.00 in
23:50 13.6 °F 1.2 °F 30.58 in Calm   11.0 mph 57 % 0.00 in
23:55 13.5 °F 1.1 °F 30.58 in WSW 3.0 mph 11.0 mph 57 % 0.00 in
MarylandWx.com
Compliments of Weather Underground - 7.25 mb